Regional Weather Roundup
Issued by NWS

Home | Current Version | Previous Version | Graphics & Text | Print | Product List | Glossary On
Versions: 1 2 3 4 5 6 7 8 9 10 11 12 13 14 15 16 17 18 19 20 21 22 23 24 25 26 27 28 29 30 31 32 33 34 35 36 37 38 39 40 41 42 43 44 45 46 47 48 49 50
691
ASUS43 KLSX 170857
RWRMO

WEATHER SUMMARY FOR MISSOURI
NATIONAL WEATHER SERVICE SPRINGFIELD MO
400 AM CDT THU AUG 17 2017

NOTE: "FAIR" INDICATES FEW OR NO CLOUDS BELOW 12,000 FEET WITH NO
       SIGNIFICANT WEATHER AND/OR OBSTRUCTIONS TO VISIBILITY.
       CURRENT SKY AND/OR WEATHER CONDITIONS ARE NOT AVAILABLE FOR
       CHILLICOTHE AND FARMINGTON.

MOZ001>031-035>038-043-044-053-054-171000-
...NORTHERN AND WESTERN MISSOURI...

CITY           SKY/WX    TMP DP  RH WIND       PRES   REMARKS
KANSAS CTY INT CLOUDY    67  66  97 W5        29.86R
LEE`S SUMMIT   CLOUDY    68  68 100 W7        29.86F
ST JOSEPH      FOG       66  64  93 NW3       29.87R VSB 1
CHILLICOTHE      N/A     69  69 100 S6        29.84R

$$
MOZ066>068-077>081-088>096-101>105-171000-
...SOUTHWEST MISSOURI...

CITY           SKY/WX    TMP DP  RH WIND       PRES   REMARKS
SPRINGFIELD    CLOUDY    67  67 100 CALM      29.91R
JOPLIN         CLOUDY    69  68  96 SW8       29.92R

$$
MOZ032>034-039>042-045>050-055>058-069>072-171000-
...CENTRAL MISSOURI...

CITY           SKY/WX    TMP DP  RH WIND       PRES   REMARKS
COLUMBIA       NOT AVBL
JEFFERSON CITY MOCLDY    69  69 100 S5        29.87S
ROLLA          CLOUDY    65  65 100 SW8       29.92R
SEDALIA        CLOUDY    70  70 100 SW9       29.87S
WARRENSBURG    CLOUDY    70  66  88 SW6       29.86S

$$
MOZ051-052-059>065-171000-
...EAST CENTRAL MISSOURI...

CITY           SKY/WX    TMP DP  RH WIND       PRES   REMARKS
ST LOUIS INTL  LGT RAIN  70  69  97 S7        29.80F

$$
MOZ072>076-082>087-097>100-106>115-171000-
...SOUTH CENTRAL AND SOUTHEAST MISSOURI...

CITY           SKY/WX    TMP DP  RH WIND       PRES   REMARKS
CAPE GIRARDEAU MOCLDY    77  74  90 S12       29.88S
POPLAR BLUFF   CLOUDY    77  76  96 S10       29.89R

$$



USA.gov is the U.S. government's official web portal to all federal, state and local government web resources and services.